Home > Weather > Brockton > Past weeks

Flag for U.S.A. Weather for the Past 2 Weeks in Brockton, Massachusetts, U.S.A.

Now
39 °F

Chilly.


Feels Like: 33 °F
Forecast: 27 / 43 °F
Wind: 8 mph from Northwest

Location: East Milton

Current Time: Feb 7, 2016 at 12:37:59 PM

Latest Report: Feb 7, 2016 at 11:54 AM


Visibility: N/A

Pressure: 30.14 "Hg

Humidity: 57%

Dew point: 25 °F

Location of BrocktonLocation

Historic Weather in Brockton — Graph

°F

Brockton Temperature Yesterday

Maximum temperature yesterday: 32 °F (at 12:54 PM)
Minimum temperature yesterday: 18 °F (at 2:54 AM)
Average temperature yesterday: 25 °F

High & Low Weather Summary for the Past Weeks

 TemperatureHumidityPressure
High63 °F (Feb 1, 12:54 PM)100% (Jan 23, 5:54 PM)30.41 "Hg (Jan 23, 5:54 PM)
Low15 °F (Jan 24, 5:54 AM)30% (Jan 24, 12:54 PM)29.38 "Hg (Jan 29, 12:54 PM)
Average35 °F71%29.99 "Hg
* Reported Jan 23 10:54 AM — Feb 7 10:54 AM, Brockton, Weather by CustomWeather, © 2016

Note: Actual official high and low records may vary slightly from our data, if they occured in-between our weather recording intervals... More about our weather records

Advertising

Brockton Weather History for the Previous 24 Hours

 ConditionsComfort  
Time TempWeatherWind HumidityBarometerVisibility
10:54 AM
Sun, Feb 7
35 °FChilly.5 mph67%30.18 "HgN/A
9:54 AM33 °FChilly.5 mph70%30.19 "HgN/A
8:54 AM28 °FChilly.7 mph78%30.19 "HgN/A
7:54 AM26 °FChilly.9 mph81%30.20 "HgN/A
6:54 AM25 °FChilly.12 mph85%30.18 "HgN/A
5:54 AM26 °FChilly.13 mph84%30.17 "HgN/A
4:54 AM26 °FChilly.15 mph84%30.19 "HgN/A
3:54 AM27 °FChilly.14 mph85%30.19 "HgN/A
2:54 AM27 °FChilly.14 mph85%30.19 "HgN/A
1:54 AM28 °FChilly.14 mph85%30.20 "HgN/A
12:54 AM28 °FChilly.16 mph85%30.22 "HgN/A
11:54 PM
Sat, Feb 6
28 °FChilly.15 mph85%30.24 "HgN/A
10:54 PM27 °FChilly.14 mph89%30.26 "HgN/A
9:54 PM27 °FChilly.14 mph89%30.27 "HgN/A
8:54 PM27 °FChilly.14 mph89%30.29 "HgN/A
7:54 PM28 °FChilly.15 mph81%30.29 "HgN/A
6:54 PM28 °FChilly.15 mph81%30.29 "HgN/A
5:54 PM29 °FChilly.13 mph85%30.29 "HgN/A
4:54 PM30 °FChilly.15 mph82%30.28 "HgN/A
3:54 PM31 °FChilly.16 mph76%30.29 "HgN/A
2:54 PM32 °FChilly.12 mph75%30.30 "HgN/A
1:54 PM32 °FChilly.13 mph79%30.31 "HgN/A
12:54 PM32 °FChilly.10 mph82%30.33 "HgN/A
Weather by CustomWeather, © 2016

See weather overviewHow to use our weather pages